Weather History for Fort Lauderdale, FL

Change the Weather History Date:

Saturday, July 6, 2013

  Actual Average Record
Temperature  
Mean Temperature 84 °F -  
Max Temperature 90 °F 91 °F 95 °F (1979)
Min Temperature 80 °F 73 °F 63 °F (1950)
Cooling Degree Days 20    
Growing Degree Days 34 (Base 50)    
Moisture  
Dew Point 74 °F    
Average Humidity 73    
Maximum Humidity 90    
Minimum Humidity 61    
Precipitation  
Precipitation 0.15 in - - ()
Sea Level Pressure  
Sea Level Pressure 30.09 in    
Wind  
Wind Speed 13 mph (ESE)    
Max Wind Speed 21 mph    
Max Gust Speed 25 mph    
Visibility 10 miles    
Events Rain    
Averages and records for this station are not official NWS values.
T = Trace of Precipitation, MM = Missing Value Source: NWS Daily Summary

Daily Weather History Graph

Daily Weather History Graph

Search for Another Location

Airport:

Trip Planner

Search our weather history database for the weather conditions in past years. The results will help you decide how hot, cold, wet, or windy it might be!

Date:

Astronomy

Jul. 06, 2013 Rise Set
Actual Time 6:33 AM EDT 8:16 PM EDT
Civil Twilight 6:08 AM EDT 8:42 PM EDT
Nautical Twilight 5:36 AM EDT 9:14 PM EDT
Astronomical Twilight 5:04 AM EDT 9:46 PM EDT
Moon 5:14 AM EDT (7/6) 7:02 PM EDT (7/6)
Length of Visible Light 14h 34m
Length of Day
13h 42m
Waning Crescent, 2% of the Moon is Illuminated
Jul 6
Waning Crescent
Jul 8
New
Jul 15
First Quarter
Jul 22
Full
Jul 29
Last Quarter

Hourly Weather History & Observations

Time (EDT) Temp. Heat Index Dew Point Humidity Pressure Visibility Wind Dir Wind Speed Gust Speed Precip Events Conditions
12:53 AM 82.0 °F 87.9 °F 73.9 °F 76% 30.12 in 10.0 mi ESE 10.4 mph - N/A   Mostly Cloudy
1:53 AM 82.0 °F 87.9 °F 73.9 °F 76% 30.11 in 10.0 mi ESE 11.5 mph - N/A   Clear
2:53 AM 82.0 °F 87.9 °F 73.9 °F 76% 30.09 in 10.0 mi ESE 9.2 mph - N/A   Scattered Clouds
3:53 AM 81.0 °F 86.7 °F 75.0 °F 82% 30.06 in 10.0 mi East 12.7 mph - N/A   Partly Cloudy
4:53 AM 80.1 °F 84.2 °F 73.0 °F 79% 30.05 in 10.0 mi East 9.2 mph - N/A   Clear
5:53 AM 81.0 °F 86.7 °F 75.0 °F 82% 30.06 in 10.0 mi East 12.7 mph - N/A   Scattered Clouds
6:53 AM 82.0 °F 87.4 °F 73.0 °F 74% 30.07 in 10.0 mi East 11.5 mph - N/A   Mostly Cloudy
7:53 AM 82.9 °F 88.8 °F 73.0 °F 72% 30.08 in 10.0 mi ESE 12.7 mph - N/A   Mostly Cloudy
8:53 AM 84.0 °F 91.2 °F 73.9 °F 72% 30.10 in 10.0 mi ESE 18.4 mph - 0.00 in   Scattered Clouds
9:53 AM 84.9 °F 92.1 °F 73.9 °F 69% 30.11 in 10.0 mi ESE 15.0 mph 23.0 mph N/A   Scattered Clouds
10:53 AM 86.0 °F 93.0 °F 73.0 °F 65% 30.11 in 10.0 mi ESE 13.8 mph 23.0 mph N/A   Scattered Clouds
11:53 AM 84.9 °F 92.1 °F 73.9 °F 69% 30.12 in 10.0 mi East 17.3 mph 23.0 mph N/A   Scattered Clouds
12:53 PM 86.0 °F 95.1 °F 75.0 °F 70% 30.12 in 10.0 mi East 16.1 mph 20.7 mph 0.00 in   Scattered Clouds
1:53 PM 89.1 °F 98.0 °F 73.9 °F 61% 30.11 in 10.0 mi ESE 16.1 mph 23.0 mph N/A   Scattered Clouds
2:53 PM 88.0 °F 96.5 °F 73.9 °F 63% 30.10 in 10.0 mi East 17.3 mph 23.0 mph N/A   Mostly Cloudy
3:53 PM 88.0 °F 96.5 °F 73.9 °F 63% 30.07 in 10.0 mi ESE 16.1 mph 23.0 mph N/A   Scattered Clouds
4:53 PM 88.0 °F 95.6 °F 73.0 °F 61% 30.05 in 10.0 mi East 20.7 mph 25.3 mph N/A   Scattered Clouds
5:53 PM 80.1 °F 85.8 °F 77.0 °F 90% 30.05 in 10.0 mi East 11.5 mph - 0.15 in Rain Light Rain
6:53 PM 84.0 °F 91.9 °F 75.0 °F 74% 30.05 in 10.0 mi East 18.4 mph - 0.00 in   Scattered Clouds
7:53 PM 82.0 °F 87.9 °F 73.9 °F 76% 30.07 in 10.0 mi East 12.7 mph - N/A   Scattered Clouds
8:53 PM 82.0 °F 87.9 °F 73.9 °F 76% 30.08 in 10.0 mi East 11.5 mph - N/A   Overcast
9:53 PM 82.0 °F 87.9 °F 73.9 °F 76% 30.09 in 10.0 mi ESE 13.8 mph - N/A   Scattered Clouds
10:53 PM 82.0 °F 88.6 °F 75.0 °F 79% 30.11 in 10.0 mi East 12.7 mph - N/A   Overcast
11:53 PM 82.0 °F 88.6 °F 75.0 °F 79% 30.11 in 10.0 mi East 10.4 mph - N/A   Partly Cloudy